| time (UTC) | temp F | wind direction | speed MPH | gust MPH | rain 1hr in | rain 24hr in | rain mn in | humidity % | barometer mb |
| 20260506110512 | 71 | 133 | 2.0 | 6.0 | 0.00 | 0.00 | 0.00 | 39 | 1014.7 |
| 20260506105512 | 71 | 124 | 10.0 | 14.0 | 0.00 | 0.00 | 0.00 | 40 | 1014.8 |
| 20260506105020 | 71 | 61 | 4.0 | 8.0 | 0.00 | 0.00 | 0.00 | 39 | 1014.8 |
| 20260506103019 | 70 | 172 | 5.0 | 12.0 | 0.00 | 0.00 | 0.00 | 43 | 1014.9 |
| 20260506102019 | 69 | 39 | 2.0 | 9.0 | 0.00 | 0.00 | 0.00 | 45 | 1014.9 |
| 20260506101512 | 69 | 33 | 3.0 | 10.0 | 0.00 | 0.00 | 0.00 | 44 | 1015.0 |
| 20260506101019 | 69 | 57 | 6.0 | 12.0 | 0.00 | 0.00 | 0.00 | 44 | 1015.1 |
| 20260506100512 | 69 | 230 | 6.0 | 12.0 | 0.00 | 0.00 | 0.00 | 43 | 1015.1 |
| 20260506095512 | 67 | 75 | 5.0 | 10.0 | 0.00 | 0.00 | 0.00 | 46 | 1015.2 |
| 20260506093513 | 67 | 77 | 3.0 | 8.0 | 0.00 | 0.00 | 0.00 | 49 | 1015.5 |
| 20260506092512 | 67 | 100 | 2.0 | 12.0 | 0.00 | 0.00 | 0.00 | 47 | 1015.3 |
| 20260506092019 | 66 | 105 | 3.0 | 9.0 | 0.00 | 0.00 | 0.00 | 50 | 1015.3 |
| 20260506090012 | 65 | 137 | 2.0 | 7.0 | 0.00 | 0.00 | 0.00 | 51 | 1015.5 |
| 20260506085512 | 65 | 95 | 5.0 | 7.0 | 0.00 | 0.00 | 0.00 | 51 | 1015.6 |
| 20260506083512 | 65 | 70 | 3.0 | 7.0 | 0.00 | 0.00 | 0.00 | 49 | 1015.4 |
| 20260506082512 | 64 | 113 | 4.0 | 9.0 | 0.00 | 0.00 | 0.00 | 50 | 1015.4 |
| 20260506081512 | 64 | 70 | 3.0 | 7.0 | 0.00 | 0.00 | 0.00 | 52 | 1015.3 |
| 20260506081019 | 64 | 93 | 3.0 | 6.0 | 0.00 | 0.00 | 0.00 | 54 | 1015.3 |
| 20260506080512 | 63 | 64 | 1.0 | 3.0 | 0.00 | 0.00 | 0.00 | 55 | 1015.3 |
| 20260506073511 | 63 | 108 | 3.0 | 7.0 | 0.00 | 0.00 | 0.00 | 50 | 1015.0 |
| 20260506073019 | 63 | 109 | 5.0 | 9.0 | 0.00 | 0.00 | 0.00 | 49 | 1015.1 |
| 20260506072511 | 63 | 74 | 2.0 | 3.0 | 0.00 | 0.00 | 0.00 | 47 | 1015.1 |
| 20260506071512 | 62 | 35 | 1.0 | 5.0 | 0.00 | 0.00 | 0.00 | 44 | 1015.2 |
| 20260506071020 | 62 | 147 | 2.0 | 6.0 | 0.00 | 0.00 | 0.00 | 50 | 1015.3 |
| 20260506070512 | 62 | 166 | 3.0 | 6.0 | 0.00 | 0.00 | 0.00 | 45 | 1015.4 |
| 20260506062018 | 59 | 319 | 2.0 | 3.0 | 0.00 | 0.00 | 0.00 | 63 | 1015.6 |
| 20260506061018 | 59 | 335 | 1.0 | 3.0 | 0.00 | 0.00 | 0.00 | 65 | 1015.9 |
| 20260506051019 | 56 | 272 | 4.0 | 7.0 | 0.00 | 0.00 | 0.00 | 72 | 1015.4 |
| 20260506050512 | 56 | 249 | 2.0 | 3.0 | 0.00 | 0.00 | 0.00 | 73 | 1015.3 |
| 20260506045019 | 55 | 277 | 3.0 | 6.0 | 0.00 | 0.00 | 0.00 | 75 | 1015.1 |
| 20260506044511 | 56 | 285 | 2.0 | 6.0 | 0.00 | 0.00 | 0.00 | 74 | 1015.0 |
| 20260506042512 | 57 | 135 | 0.0 | 2.0 | 0.00 | 0.00 | 0.00 | 68 | 1014.6 |
| 20260506041511 | 57 | 118 | 1.0 | 3.0 | 0.00 | 0.00 | 0.00 | 69 | 1014.5 |
| 20260506041019 | 57 | 97 | 3.0 | 5.0 | 0.00 | 0.00 | 0.00 | 72 | 1014.4 |
| 20260506040512 | 57 | 139 | 1.0 | 3.0 | 0.00 | 0.00 | 0.00 | 72 | 1014.5 |
| 20260506040013 | 56 | 180 | 1.0 | 3.0 | 0.00 | 0.00 | 0.00 | 72 | 1014.5 |
| 20260506035512 | 56 | 197 | 2.0 | 3.0 | 0.00 | 0.00 | 0.00 | 72 | 1014.4 |
| 20260506032511 | 56 | 64 | 1.0 | 3.0 | 0.00 | 0.00 | 0.00 | 75 | 1014.6 |
| 20260506031511 | 56 | 225 | 1.0 | 3.0 | 0.00 | 0.00 | 0.00 | 75 | 1014.5 |
| 20260506030511 | 56 | 279 | 2.0 | 3.0 | 0.00 | 0.00 | 0.00 | 75 | 1014.7 |
| 20260506030013 | 55 | 251 | 0.0 | 2.0 | 0.00 | 0.00 | 0.00 | 75 | 1014.7 |
| 20260506025512 | 55 | 275 | 1.0 | 3.0 | 0.00 | 0.00 | 0.00 | 77 | 1014.8 |
| 20260506025017 | 55 | 269 | 1.0 | 3.0 | 0.00 | 0.00 | 0.00 | 79 | 1014.8 |
| 20260506024512 | 55 | 270 | 1.0 | 3.0 | 0.00 | 0.00 | 0.00 | 80 | 1014.9 |
| 20260506024017 | 55 | 316 | 3.0 | 3.0 | 0.00 | 0.00 | 0.00 | 82 | 1014.9 |
| 20260506022511 | 55 | 320 | 2.0 | 3.0 | 0.00 | 0.00 | 0.00 | 81 | 1015.1 |
| 20260506022018 | 55 | 285 | 1.0 | 2.0 | 0.00 | 0.00 | 0.00 | 81 | 1015.0 |
| 20260506021018 | 55 | 309 | 0.0 | 1.0 | 0.00 | 0.00 | 0.00 | 82 | 1014.9 |
| 20260506020011 | 55 | 309 | 1.0 | 2.0 | 0.00 | 0.00 | 0.00 | 82 | 1015.0 |
| 20260506014511 | 56 | 257 | 2.0 | 3.0 | 0.00 | 0.00 | 0.00 | 81 | 1015.2 |
| 20260506013511 | 55 | 226 | 3.0 | 3.0 | 0.00 | 0.00 | 0.00 | 80 | 1015.2 |
| 20260506012511 | 56 | 272 | 1.0 | 5.0 | 0.00 | 0.00 | 0.00 | 77 | 1015.2 |
| 20260506012017 | 57 | 321 | 0.0 | 3.0 | 0.00 | 0.00 | 0.00 | 77 | 1015.2 |
| 20260506011017 | 56 | 80 | 1.0 | 2.0 | 0.00 | 0.00 | 0.00 | 78 | 1015.2 |
| 20260506010511 | 56 | 108 | 1.0 | 3.0 | 0.00 | 0.00 | 0.00 | 79 | 1015.1 |
| 20260506005019 | 56 | 274 | 2.0 | 5.0 | 0.00 | 0.00 | 0.00 | 83 | 1015.5 |
| 20260506001511 | 57 | 37 | 1.0 | 3.0 | 0.00 | 0.00 | 0.00 | 80 | 1015.6 |
| 20260506001018 | 57 | 110 | 2.0 | 3.0 | 0.00 | 0.00 | 0.00 | 80 | 1015.6 |
| 20260506000011 | 57 | 127 | 1.0 | 3.0 | 0.00 | 0.00 | 0.00 | 80 | 1015.6 |
| 20260505235511 | 57 | 96 | 2.0 | 3.0 | 0.00 | 0.00 | 0.00 | 80 | 1015.7 |
| 20260505235017 | 57 | 103 | 2.0 | 3.0 | 0.00 | 0.00 | 0.00 | 80 | 1015.7 |
| 20260505234511 | 57 | 98 | 2.0 | 3.0 | 0.00 | 0.00 | 0.00 | 80 | 1015.8 |
| 20260505234017 | 57 | 128 | 1.0 | 3.0 | 0.00 | 0.00 | 0.00 | 80 | 1015.8 |
| 20260505232511 | 57 | 112 | 1.0 | 2.0 | 0.00 | 0.00 | 0.00 | 79 | 1016.2 |
| 20260505230511 | 56 | 104 | 1.0 | 1.0 | 0.00 | 0.00 | 0.00 | 81 | 1016.4 |
| 20260505230011 | 56 | 104 | 1.0 | 2.0 | 0.00 | 0.00 | 0.00 | 81 | 1016.4 |
| 20260505225513 | 57 | 110 | 1.0 | 2.0 | 0.00 | 0.00 | 0.00 | 81 | 1016.4 |
| 20260505224518 | 57 | 155 | 2.0 | 3.0 | 0.00 | 0.00 | 0.00 | 80 | 1016.5 |
| 20260505222517 | 57 | 147 | 1.0 | 2.0 | 0.00 | 0.00 | 0.00 | 80 | 1016.4 |
| 20260505222023 | 57 | 155 | 1.0 | 2.0 | 0.00 | 0.00 | 0.00 | 80 | 1016.5 |
| 20260505221516 | 57 | 141 | 1.0 | 3.0 | 0.00 | 0.00 | 0.00 | 79 | 1016.6 |
| 20260505220516 | 58 | 172 | 1.0 | 3.0 | 0.00 | 0.00 | 0.00 | 77 | 1016.7 |
| 20260505215516 | 58 | 57 | 1.0 | 2.0 | 0.00 | 0.00 | 0.00 | 76 | 1016.6 |
| 20260505215023 | 58 | 43 | 1.0 | 3.0 | 0.00 | 0.00 | 0.00 | 75 | 1016.7 |
| 20260505213024 | 58 | 119 | 1.0 | 2.0 | 0.00 | 0.00 | 0.00 | 74 | 1016.7 |
| 20260505212023 | 58 | 120 | 1.0 | 2.0 | 0.00 | 0.00 | 0.00 | 75 | 1016.7 |
| 20260505211517 | 58 | 115 | 1.0 | 3.0 | 0.00 | 0.00 | 0.00 | 76 | 1016.8 |
| 20260505211023 | 58 | 116 | 2.0 | 3.0 | 0.00 | 0.00 | 0.00 | 75 | 1016.8 |
| 20260505210516 | 59 | 107 | 2.0 | 3.0 | 0.00 | 0.00 | 0.00 | 73 | 1016.9 |
| 20260505210016 | 59 | 107 | 3.0 | 3.0 | 0.00 | 0.00 | 0.00 | 72 | 1016.9 |
| 20260505204517 | 59 | 125 | 3.0 | 3.0 | 0.00 | 0.00 | 0.00 | 71 | 1016.9 |
| 20260505202516 | 58 | 10 | 0.0 | 2.0 | 0.00 | 0.00 | 0.00 | 74 | 1017.3 |
| 20260505201023 | 60 | 47 | 0.0 | 2.0 | 0.00 | 0.00 | 0.00 | 72 | 1017.0 |
| 20260505200017 | 60 | 110 | 0.0 | 1.0 | 0.00 | 0.00 | 0.00 | 72 | 1017.0 |
| 20260505194518 | 59 | 99 | 1.0 | 2.0 | 0.00 | 0.00 | 0.00 | 73 | 1016.9 |
| 20260505194023 | 59 | 99 | 1.0 | 2.0 | 0.00 | 0.00 | 0.00 | 73 | 1017.0 |
| 20260505193023 | 60 | 89 | 2.0 | 3.0 | 0.00 | 0.00 | 0.00 | 72 | 1016.9 |
| 20260505191516 | 61 | 321 | 1.0 | 3.0 | 0.00 | 0.00 | 0.00 | 69 | 1016.8 |
| 20260505191023 | 61 | 275 | 1.0 | 2.0 | 0.00 | 0.00 | 0.00 | 67 | 1016.8 |
| 20260505190516 | 60 | 266 | 1.0 | 3.0 | 0.00 | 0.00 | 0.00 | 69 | 1016.7 |
| 20260505185517 | 60 | 286 | 1.0 | 3.0 | 0.00 | 0.00 | 0.00 | 71 | 1016.6 |
| 20260505182023 | 60 | 254 | 4.0 | 7.0 | 0.00 | 0.00 | 0.00 | 73 | 1016.4 |
| 20260505181516 | 60 | 260 | 5.0 | 7.0 | 0.00 | 0.00 | 0.00 | 72 | 1016.3 |
| 20260505180516 | 60 | 244 | 4.0 | 7.0 | 0.00 | 0.00 | 0.00 | 71 | 1016.2 |
| 20260505174024 | 61 | 271 | 5.0 | 9.0 | 0.00 | 0.00 | 0.00 | 66 | 1016.4 |
| 20260505173516 | 61 | 255 | 7.0 | 9.0 | 0.00 | 0.00 | 0.00 | 65 | 1016.4 |
| 20260505172517 | 62 | 250 | 6.0 | 10.0 | 0.00 | 0.00 | 0.00 | 63 | 1016.4 |
| 20260505172024 | 62 | 247 | 7.0 | 9.0 | 0.00 | 0.00 | 0.00 | 62 | 1016.4 |
| 20260505171024 | 62 | 253 | 6.0 | 12.0 | 0.00 | 0.00 | 0.00 | 61 | 1016.5 |
| 20260505170517 | 62 | 256 | 6.0 | 10.0 | 0.00 | 0.00 | 0.00 | 61 | 1016.5 |
| 20260505164024 | 64 | 277 | 6.0 | 12.0 | 0.00 | 0.00 | 0.00 | 59 | 1016.4 |
| 20260505163024 | 64 | 268 | 7.0 | 12.0 | 0.00 | 0.00 | 0.00 | 57 | 1016.4 |
| 20260505162516 | 64 | 68 | 9.0 | 13.0 | 0.00 | 0.00 | 0.00 | 59 | 1016.4 |
| 20260505161517 | 64 | 284 | 7.0 | 13.0 | 0.00 | 0.00 | 0.00 | 58 | 1016.5 |
| 20260505161024 | 65 | 276 | 8.0 | 13.0 | 0.00 | 0.00 | 0.00 | 56 | 1016.5 |
| 20260505153023 | 66 | 224 | 7.0 | 14.0 | 0.00 | 0.00 | 0.00 | 53 | 1016.5 |
| 20260505152025 | 67 | 190 | 10.0 | 14.0 | 0.00 | 0.00 | 0.00 | 51 | 1016.5 |
| 20260505151023 | 67 | 266 | 7.0 | 13.0 | 0.00 | 0.00 | 0.00 | 49 | 1016.4 |
| 20260505140516 | 69 | 258 | 9.0 | 15.0 | 0.00 | 0.00 | 0.00 | 39 | 1016.5 |
| 20260505125023 | 70 | 300 | 5.0 | 10.0 | 0.00 | 0.00 | 0.00 | 48 | 1017.0 |
| 20260505124516 | 70 | 262 | 5.0 | 12.0 | 0.00 | 0.00 | 0.00 | 48 | 1017.0 |
| 20260505123516 | 69 | 248 | 7.0 | 14.0 | 0.00 | 0.00 | 0.00 | 52 | 1017.2 |
| 20260505123023 | 69 | 243 | 10.0 | 14.0 | 0.00 | 0.00 | 0.00 | 51 | 1017.2 |
| 20260505121023 | 70 | 204 | 6.0 | 12.0 | 0.00 | 0.00 | 0.00 | 50 | 1017.3 |
| 20260505120016 | 69 | 185 | 6.0 | 10.0 | 0.00 | 0.00 | 0.00 | 51 | 1017.4 |
| 20260505115023 | 69 | 247 | 7.0 | 14.0 | 0.00 | 0.00 | 0.00 | 53 | 1017.4 |
| 20260505114516 | 69 | 292 | 6.0 | 9.0 | 0.00 | 0.00 | 0.00 | 52 | 1017.4 |
| 20260505114025 | 69 | 255 | 5.0 | 12.0 | 0.00 | 0.00 | 0.00 | 52 | 1017.5 |
| 20260505113516 | 68 | 272 | 5.0 | 9.0 | 0.00 | 0.00 | 0.00 | 54 | 1017.6 |